Back to catalog

COSMOS 2251 DEB

AliveLEO
NORAD 34815·DEBRIS·🇷🇺 Russia

Launched Jun 16, 1993 from Plesetsk Cosmodrome

Loading…

Next Passes (next 24 hours)

TLE

FreshSource: Space-Track

Epoch: Sep 14, 2026, 04:56 UTC

1 34815U 93036ABE 26257.20618915  .00003516  00000-0  44264-3 0  9994
2 34815  74.0438  59.3268 0054091  57.9859 302.6557 14.81397062927034

Track COSMOS 2251 DEB in real time with AllMySat

Download on the App Store